Tracking 30918 objects as of 2-Jul-2025
HD Live streaming from Space Station
objects crossing your sky now

STARLINK-2159

Track STARLINK-2159 now!
10-day predictions
STARLINK-2159 is classified as:


NORAD ID: 47745
Int'l Code: 2021-017Z
Perigee: 553.7 km
Apogee: 555.0 km
Inclination: 53.1 °
Period: 95.6 minutes
Semi major axis: 6925 km
RCS: Unknown
Launch date: March 4, 2021
Source: United States (US)
Launch site: AIR FORCE EASTERN TEST RANGE (AFETR)
Your satellite tracking list
COSMOS 2180
Track 1 satellite(s)




NASA's NSSDC Master Catalog

Two Line Element Set (TLE):
1 47745U 21017Z   25183.21911691 -.00000250  00000-0  20758-5 0  9992
2 47745  53.0546 256.0285 0000905  87.8754 272.2339 15.06393569239349
Source of the keplerian elements: AFSPC